Location: Newark
(48.9320°N, 2.2664°E)
Time: 21:43:50
(UTC+00:00)

Vanguard 1 - All Passes

Search period start: 28 February 2020 00:00
Search period end: 09 March 2020 00:00
Orbit: 649 x 3834 km, 34.3° (Epoch: 27 February)

Date Brightness Start Highest point End Pass type
(mag) Time Alt. Az. Time Alt. Az. Time Alt. Az.
28 Feb - 03:21:04 10° SSE 03:33:02 17° SE 03:44:44 10° E visible
28 Feb - 05:35:40 10° SSW 05:55:31 38° SSE 06:12:02 10° E visible
28 Feb - 07:58:06 10° WSW 08:19:21 49° S 08:33:44 10° ESE daylight
28 Feb - 10:24:12 10° W 10:42:00 41° SSW 10:52:54 10° SE daylight
28 Feb - 12:52:48 10° W 13:01:43 18° SW 13:08:12 10° S daylight
29 Feb - 03:38:22 10° S 03:53:21 23° SE 04:07:57 10° E visible
29 Feb - 05:55:37 10° SW 06:16:20 42° SSE 06:33:14 10° E visible
29 Feb - 08:19:03 10° WSW 08:40:17 50° S 08:54:28 10° ESE daylight
29 Feb - 10:45:37 10° W 11:02:33 37° SSW 11:13:07 10° SE daylight
29 Feb - 13:15:58 10° WSW 13:21:41 13° SW 13:26:20 10° SSW daylight
01 Mar - 03:56:49 10° S 04:13:46 28° SE 04:30:12 10° E visible
01 Mar - 06:15:53 10° SW 06:37:13 46° SSE 06:54:18 10° E daylight
01 Mar - 08:40:07 10° WSW 09:01:11 50° S 09:15:07 10° ESE daylight
01 Mar - 11:07:11 10° W 11:22:58 33° SW 11:33:06 10° SSE daylight
02 Mar - 02:06:40 10° SE 02:12:50 12° SE 02:19:10 10° ESE visible
02 Mar - 04:15:56 10° SSW 04:34:17 34° SE 04:51:58 10° E visible
02 Mar - 06:36:25 10° SW 06:58:10 49° S 07:15:16 10° ESE daylight
02 Mar - 09:01:18 10° WSW 09:22:01 48° SSW 09:35:39 10° SE daylight
02 Mar - 11:28:57 10° W 11:43:13 27° SW 11:52:47 10° SSE daylight
03 Mar - 02:21:27 10° SSE 02:32:52 17° SE 02:44:58 10° E visible
03 Mar - 04:35:33 10° SSW 04:54:55 39° SSE 05:13:25 10° E visible
03 Mar - 06:57:08 10° WSW 07:19:09 52° S 07:36:08 10° ESE daylight
03 Mar - 09:22:35 10° W 09:42:45 45° SSW 09:56:03 10° SE daylight
03 Mar - 11:51:04 10° W 12:03:20 22° SW 12:12:03 10° S daylight
04 Mar - 02:38:55 10° S 02:53:01 23° SE 03:08:13 10° E visible
04 Mar - 04:55:31 10° SW 05:15:40 44° SSE 05:34:42 10° E visible
04 Mar - 07:18:01 10° WSW 07:40:07 52° S 07:56:55 10° ESE daylight
04 Mar - 09:43:59 10° W 10:03:22 41° SSW 10:16:16 10° SE daylight
04 Mar - 12:13:48 10° W 12:23:18 17° SW 12:30:36 10° SSW daylight
05 Mar - 02:57:28 10° S 03:13:16 28° SE 03:30:33 10° E visible
05 Mar - 05:15:46 10° SW 05:36:30 48° SSE 05:55:49 10° E visible
05 Mar - 07:39:02 10° WSW 08:01:04 52° S 08:17:37 10° ESE daylight
05 Mar - 10:05:30 10° W 10:23:50 36° SSW 10:36:17 10° SSE daylight
05 Mar - 12:38:16 10° WSW 12:43:08 12° WSW 12:47:23 10° SW daylight
06 Mar - 01:08:39 10° SE 01:12:59 11° ESE 01:17:31 10° ESE visible
06 Mar - 03:16:39 10° SSW 03:33:39 34° SE 03:52:24 10° E visible
06 Mar - 05:36:16 10° SW 05:57:25 51° SSE 06:16:52 10° E visible
06 Mar - 08:00:10 10° W 08:21:59 50° SSW 08:38:11 10° SE daylight
06 Mar - 10:27:13 10° W 10:44:08 31° SW 10:56:00 10° SSE daylight
07 Mar - 01:22:54 10° SSE 01:32:52 16° SE 01:44:06 10° E visible
07 Mar - 03:36:18 10° SSW 03:54:11 39° SSE 04:13:56 10° E visible
07 Mar - 05:56:56 10° WSW 06:18:24 53° S 06:37:48 10° ESE daylight
07 Mar - 08:21:23 10° W 08:42:46 47° SSW 08:58:37 10° SE daylight
07 Mar - 10:49:13 10° W 11:04:18 25° SW 11:15:19 10° S daylight
08 Mar - 01:40:25 10° S 01:52:51 22° SE 02:07:32 10° E visible
08 Mar - 03:56:17 10° SW 04:14:50 44° SSE 04:35:17 10° E visible
08 Mar - 06:17:45 10° WSW 06:39:24 54° S 06:58:39 10° ESE daylight
08 Mar - 08:42:42 10° W 09:03:28 43° SSW 09:18:52 10° SE daylight
08 Mar - 11:11:46 10° W 11:24:19 20° SW 11:34:01 10° S daylight
